STARLINK-5729, 55596

Orbit data source: Space-Track

STARLINK-5729, 55596 is a payload satellite owned by SpaceX/Seattle (US) in LEO that was launched on Sun, 12 Feb 2023 UTC via an FALCON 9 launch vehicle from the Air Force Eastern Test Range (AFETR). Payload-class satellites include a variety of spacecraft equipped with specific instruments for various scientific and technological missions. These include communications satellites like Starlink; space stations such as the ISS; scientific satellites like the Hubble; Earth observation satellites from companies like Planet Labs, Umbra, and HawkEye 360; GPS; miniature CubeSats for education and research; and military/defense satellites.

Loading next visibility...
Identifier
55596, 2023-020AD
Orbit
LEO
Country
Flag of USUS
Related business
Manufacturer
SpaceX/Seattle
Mission
Operational Commercial Communications
Bus & Motor
STARLINK, Unknown motor
Mass
305 kg wet, ~290 kg dry
Launch date (UTC)
2023-02-12 (4 years ago)
Launch vehicle
FALCON 9
Launch site
Air Force Eastern Test Range (AFETR)
Object type
Payload
Rocket body
Debris
Shape & HBR
Box + 1 Pan, 10.1 m
Radar Cross Section
13.562 m², Large (>1 m²)

Expand to show TLE details & history
Last TLE update: 21 hours ago

TLE from 21 hours ago
0 STARLINK-5729
1 55596U 23020AD  26263.53742800 -.00000666  00000-0 -14669-4 0  9995
2 55596  43.0036 344.6843 0000982 282.6400  77.4342 15.27573634198717
Epoch: 2026-09-20T12:53Z
TLE epoch observation values (Epoch: 2026-09-20T12:53:53.779Z)
Latitude
Longitude
151.78004°
Altitude
482.697 km
Speed
7.626 km/s
True Right ascension
22h 58m 44s
True Declination
0° 00' 00"
Sunlit
Object was in full shadow at epoch
Visualization orbit readout
Latitude
Unknown
Longitude
Unknown
Altitude
Unknown
Speed
Unknown
Apparent Right ascension
Unknown
Apparent Declination
Unknown
Sunlit
N/A
Visualization observer readout
Local Sidereal Time
03:10:06
Azimuth
Unknown
Elevation
Unknown
Doppler factor
Unknown
Orbital elements
Apogee altitude
485.687 km
Perigee altitude
484.339 km
Semi-major axis
6,863.15 km
Eccentricity
0.0001
Inclination
43.0036°
RAAN
344.6843°
Arg. of periapsis
282.64°
True anomaly
77.44518°
Mean anomaly
77.4342°
Eccentric anomaly
77.43969°
Mean motion
3.81731 °/min
Orbital period
94.31 mins
BSTAR
-0.000014669
Loading maneuver chart data...
Computing Atmospheric mass density...
Loading historical data...
Loading historical data...
Loading historical data...
Loading historical data...
Loading historical data...
Loading historical data...
Loading historical data...

Documentation

Showing up to 5 results
|